sat.trackr.live / text

‹ back to catalog

STARLINK-4549

NORAD 53433 · 2022-097AX

PAYLOAD ACTIVE UNKNOWN

§ Identity

Operator
Country
US
Launch date
2022-08-10
Launch site
AFETR
Launch vehicle
Mass (kg)
RCS (m²)

Purposes: comms

External: N2YO · Heavens-Above · Gunter

§ Orbital elements

Epoch: 2026-09-18T22:00:06.392160Z

Period
93.79 min
Inclination
53.1595°
Eccentricity
0.0001173
Mean motion
15.35399228 rev/d
Perigee alt
458.9 km
Apogee alt
460.5 km
Semi-major
6,837.9 km
B*
1.0470e-5
RAAN
307.0034°
Arg perigee
80.5326°
Mean anomaly
279.5809°
Rev number
22,806

§ Raw data

STARLINK-45491 53433U 22097AX  26261.91674065 -.00000015  00000+0  10470-4 0  99952 53433  53.1595 307.0034 0001173  80.5326 279.5809 15.35399228228066

JSON: /api/v1/satellites/53433 · /tle

For live sub-satellite position, see the globe view (requires WebGL).

§ Visibility from observer

Set your observer location to see the next 7 days of passes ≥ 10°. The values pass through the URL so the page stays shareable.

No JS? Fill the form by hand. The geolocation button needs JavaScript.